Location: *
(46.4833°N, 7.6667°E)
Time: 07:49:48
(UTC+00:00)

Daily predictions for brighter satellites

Satellite Brightness Start Highest point End
(mag) Time Altitude Azimuth Time Altitude Azimuth Time Altitude Azimuth
USA 234 4.1 16:46:20 10° NE 16:52:14 37° N 16:58:08 10° WNW
Okean-O 4.0 16:54:01 10° ESE 16:57:04 18° ENE 17:00:07 10° NNE
Cosmos 923 Rocket 4.2 16:54:12 10° NNW 16:59:25 51° ENE 17:04:34 10° SE
Meteor 1-24 Rocket 4.0 16:54:21 10° SSW 16:59:37 67° WNW 17:04:56 10° N
ISS -3.6 16:57:10 10° WSW 17:00:31 70° NNW 17:03:55 10° ENE
NOSS 2-1 (E) 4.4 17:00:18 10° SSE 17:02:52 20° ESE 17:05:26 10° ENE
ADEOS Rocket 4.5 16:59:19 10° N 17:04:30 33° WNW 17:09:23 10° SW
Aureole 2 Rocket 2.4 17:01:38 10° SSW 17:04:40 70° WNW 17:07:47 10° NNE
Cosmos 1680 Rocket 3.8 16:59:50 10° N 17:04:51 43° ENE 17:09:48 10° SE
SKYMED 2 4.2 17:03:56 10° NNE 17:07:56 34° E 17:11:53 10° SSE
ATLAS 5 CENTAUR R/B 3.5 17:06:18 10° W 17:09:38 22° NNW 17:13:21 10° NNE
CZ-4C R/B 3.9 17:07:10 10° N 17:10:12 45° WNW 17:13:16 10° SSW
Cosmos 2278 Rocket 3.7 17:09:08 10° SE 17:12:26 16° E 17:15:21 11° ENE
Meteor 2-13 Rocket 4.5 17:09:19 10° S 17:15:19 61° E 17:21:23 10° NNE
CZ-4B R/B 3.7 17:11:43 10° S 17:17:15 68° WSW 17:22:55 10° NNW
H-2A R/B 3.7 17:13:20 10° S 17:17:17 47° W 17:21:25 10° NNW
Aureole 1 4.1 17:16:05 10° NNW 17:19:06 81° ENE 17:22:21 10° SSE
Cosmos 1092 Rocket 4.3 17:14:54 10° SSE 17:20:39 42° E 17:26:23 10° NNE
Helios 1A Rocket 4.1 17:17:51 10° ESE 17:21:01 22° ENE 17:24:13 10° NNE
H-2A R/B 2.7 17:17:10 10° SE 17:21:34 31° ENE 17:26:06 10° N
Cosmos 44 3.5 17:18:37 10° SSW 17:23:17 56° ESE 17:28:09 11° NE
Cosmos 2058 Rocket 3.6 17:21:41 10° NNW 17:26:10 65° W 17:30:37 10° S
IRS-1C Rocket 4.2 17:21:25 10° SE 17:26:29 53° ENE 17:31:36 10° N
Cosmos 1937 Rocket 4.2 17:24:34 10° SSE 17:29:16 33° E 17:33:59 10° NE
X-37B 0.8 17:28:32 10° WSW 17:31:42 67° S 17:33:45 20° E
ERS-2 2.8 17:28:51 10° NNE 17:32:08 32° E 17:35:25 10° SSE
Nadezhda 4 Rocket 4.0 17:26:20 10° S 17:32:34 84° E 17:38:46 10° N
Cosmos 1340 3.2 17:29:49 10° SSE 17:33:16 36° E 17:36:44 10° NNE
Cosmos 1939 Rocket 3.1 17:31:29 10° S 17:35:34 75° WSW 17:39:38 10° NNW
Cosmos 1818 4.0 17:30:56 10° SW 17:36:18 61° NW 17:41:44 10° NNE
NOSS 3-1 (C) 4.0 17:29:50 10° NW 17:37:14 72° NE 17:45:51 10° SE
CZ-2D R/B 3.1 17:33:31 10° SSE 17:37:21 75° ENE 17:41:12 10° N
Cosmos 1626 Rocket 3.5 17:33:11 10° S 17:37:32 69° E 17:41:58 10° NNE
Cosmos 1455 2.4 17:34:11 10° NNW 17:38:01 75° W 17:41:51 10° S
CZ-4B R/B 1.3 17:38:26 10° NNE 17:41:47 88° WNW 17:45:01 10° SSW
Cosmos 2263 Rocket 4.4 17:38:21 10° W 17:42:22 19° NW 17:46:24 10° N
Feng Yun 1-1 Rocket 4.3 17:38:27 10° SSE 17:43:55 85° WSW 17:49:33 10° NNW
Cosmos 2112 Rocket 3.9 17:38:48 10° NNW 17:44:04 77° ENE 17:49:16 10° SSE
ARGOS 3.6 17:39:39 10° SE 17:44:31 37° ENE 17:49:25 10° N
Cosmos 1689 Rocket 2.9 17:44:45 29° ESE 17:44:45 29° ESE 17:47:08 10° SSE
Meteor 1-21 Rocket 4.2 17:42:10 10° S 17:47:42 89° W 17:53:19 10° N
CZ-2C R/B 3.2 17:44:30 10° SSE 17:49:55 89° E 17:55:40 10° NNW
NOSS 2-1 (C) 2.7 17:48:29 10° SW 17:51:50 80° SE 17:53:29 28° NE
OE (NEXTSAT) 4.4 17:49:21 10° W 17:52:47 70° SSW 17:54:19 30° ESE
CZ-2C R/B 3.6 17:51:11 19° NE 17:53:43 27° E 17:58:24 10° SSE
COSMO-SKYMED 1 2.7 17:51:45 10° N 17:56:07 76° WNW 18:00:26 10° SSW
MOS 1 Rocket 3.0 17:52:02 10° NNE 17:56:20 86° E 18:00:39 10° SSW
USA 229 DEB 3.9 17:49:45 10° NW 17:57:02 70° NE 18:04:42 10° SE
USA 229 3.9 17:49:51 10° NW 17:57:07 70° NE 18:04:47 10° SE
NOSS 2-1 (D) 2.8 17:54:25 10° SW 17:57:45 87° NW 17:59:15 31° NE
CZ-4 R/B 1.2 17:54:14 10° SSE 17:58:17 75° ENE 18:02:17 10° N
Cosmos 990 Rocket 3.9 17:53:23 10° SSW 17:58:36 89° WNW 18:03:49 10° NNE
SAR-Lupe-4 3.5 17:59:25 24° NNE 18:01:22 57° ESE 18:04:52 10° S
Meteor 2-15 4.5 17:55:25 10° N 18:01:29 56° ENE 18:07:30 10° SSE
Cosmos 1758 Rocket 3.7 17:58:08 10° S 18:02:27 51° E 18:06:27 12° NNE
Meteor 2-8 Rocket 4.3 17:56:38 10° N 18:02:45 80° E 18:08:52 10° SSE
Cosmos 2344 4.3 17:53:39 10° NW 18:02:48 71° NE 18:15:36 10° SE
Cosmos 2026 Rocket 3.9 18:02:21 10° S 18:08:27 75° E 18:14:41 10° NNE
CSL-04 Debris 4.1 18:04:03 10° SSE 18:09:19 58° ENE 18:14:37 10° N
COSMOS 2455 4.4 18:04:06 10° WSW 18:09:25 31° NW 18:14:45 10° NNE
Cosmos-2242 3.0 18:05:19 10° N 18:09:32 55° ENE 18:13:46 10° SSE
Meteor 1-27 4.3 18:06:51 10° N 18:12:17 48° ENE 18:17:39 10° SSE
Cosmos 1553 Rocket 4.1 18:06:00 10° N 18:12:18 55° ENE 18:18:29 10° SSE
NOSS 3-1 (A) 4.0 18:05:10 10° NW 18:12:38 75° NE 18:21:18 10° SE
Cosmos 1833 Rocket 2.6 18:10:11 10° NNW 18:15:47 65° ENE 18:20:05 17° SE
CZ-4C R/B 4.3 18:11:55 10° NW 18:15:56 18° N 18:19:07 13° NNE
PSLV R/B 3.9 18:11:47 10° NNE 18:16:03 89° WSW 18:20:15 10° SSW
USA 290 3.9 18:13:35 10° NNW 18:14:58 22° N 18:14:58 22° N
SAR-Lupe-1 4.0 18:15:55 29° NNE 18:17:41 89° W 18:21:17 10° SSW
Cosmos 1703 4.2 18:14:01 10° SSW 18:17:46 48° WNW 18:21:33 10° N
COSMOS 2406 3.1 18:13:36 10° NNW 18:19:25 78° ENE 18:25:10 10° SSE
Cosmos 1602 Rocket 4.1 18:15:33 10° SSW 18:19:49 58° WNW 18:24:10 10° N
Lacrosse 5 4.5 18:20:36 10° WNW 18:24:07 19° WSW 18:27:36 10° SSW
YAOGAN 1 2.8 18:19:57 10° S 18:24:16 69° WSW 18:28:36 10° NNW
Cosmos 858 Rocket 4.5 18:20:27 10° SSW 18:25:45 87° WNW 18:29:33 20° NNE
Cosmos 2082 Rocket 2.4 18:23:28 10° NNW 18:29:00 47° ENE 18:29:42 45° ENE
Cosmos 405 3.5 18:26:02 10° NNW 18:29:32 59° W 18:32:59 10° S
Cosmos 1655 Rocket 4.2 18:23:53 10° SSE 18:29:42 44° E 18:31:20 36° NE
Iridium 4 Rocket 3.8 18:24:59 10° N 18:30:30 69° W 18:35:30 10° S
SJ 16-02 3.7 18:27:27 10° WSW 18:30:51 21° WNW 18:34:15 10° N
DMSP B5D1-3 4.4 18:27:17 10° NNE 18:32:25 85° ESE 18:37:32 10° SSW
Okean-O 3.3 18:28:48 10° S 18:33:08 54° W 18:37:30 10° NNW
Meteor 2-15 Rocket 4.3 18:26:58 10° N 18:33:09 76° E 18:39:18 10° SSE
Cosmos 1844 Rocket 4.4 18:29:05 10° WSW 18:33:58 29° NW 18:38:51 10° N
USA 234 4.0 18:32:17 31° NE 18:34:19 39° NNE 18:40:18 10° NW
Cosmos 1346 Rocket 3.0 18:30:49 10° S 18:34:01 57° S 18:34:01 57° S
Cosmos 1825 Rocket 3.4 18:31:26 10° S 18:35:48 84° E 18:36:58 49° NNE
S3M 3.9 18:30:59 10° N 18:37:02 58° ENE 18:42:02 15° SSE
Aureole 3 Rocket 3.6 18:34:09 10° NNW 18:37:09 43° W 18:40:43 10° SSW
ISS -2.2 18:34:35 10° WNW 18:37:00 30° NNW 18:37:00 30° NNW
Cosmos 1898 Rocket 4.5 18:38:43 10° SW 18:43:46 46° WNW 18:48:07 14° N
CSL-04 Rocket 4.0 18:48:55 10° S 18:54:19 67° WSW 18:59:49 10° NNW
Cosmos 2278 Rocket 2.2 18:50:04 10° SSW 18:55:44 83° WNW 18:57:16 51° NNE
Helios 1A Rocket 4.3 18:52:03 10° SSW 18:55:57 39° W 18:59:52 10° NNW
ATLAS 5 CENTAUR R/B 4.2 18:54:35 10° NNW 18:56:12 11° N 18:56:38 11° N
Cosmos 372 Rocket 3.9 18:53:22 10° SSW 18:58:35 83° WNW 18:59:05 72° N
H-2A R/B 3.4 18:56:16 10° SSW 19:00:54 37° W 19:05:42 10° NNW
USA 281 4.5 19:03:26 24° NNE 19:03:26 24° NNE 19:06:53 10° N
SL-08 RB Rocket 4.0 19:03:42 63° W 19:03:42 63° W 19:08:05 10° NNW
X-37B 3.6 19:05:07 10° W 19:06:03 17° W 19:06:03 17° W
CZ-2C R/B 3.5 19:32:39 39° NNW 19:34:13 50° WNW 19:39:37 10° SW
USA 267 4.4 19:45:01 30° SSW 19:45:01 30° SSW 19:48:16 10° SSW
CZ-4C R/B 4.5 20:01:29 10° NNW 20:04:17 20° N 20:04:17 20° N
Cosmos 2082 Rocket 4.0 20:07:57 10° NW 20:11:37 28° W 20:11:37 28° W
ATLAS 2AS CENTAUR R/B 4.5 20:06:41 10° NW 20:10:59 23° N 20:10:59 23° N
USA 234 4.4 20:19:37 36° NW 20:19:37 36° NW 20:23:19 10° NW
